Birmingham, AL

9:52 PM CDT on June 22, 2017 (GMT -0500)
Birmingham International

Weather History for KBHM - April, 2013

Change the Weather History Date:

Monday, April 22, 2013

  Actual Average Record
Temperature  
Mean Temperature 64 °F 64 °F  
Max Temperature 74 °F 76 °F 90 °F (1987)
Min Temperature 53 °F 52 °F 31 °F (1993)
Degree Days  
Heating Degree Days 1 3  
Month to date heating degree days 111 119  
Since 1 July heating degree days 2576 2631  
Cooling Degree Days 0 3  
Month to date cooling degree days 59 38  
Year to date cooling degree days 66 60  
Growing Degree Days 13 (Base 50)    
Moisture  
Dew Point 45 °F    
Average Humidity 51    
Maximum Humidity 64    
Minimum Humidity 38    
Precipitation  
Precipitation 0.00 in 0.13 in 1.97 in (1909)
Month to date precipitation 3.69 3.23  
Year to date precipitation 23.47 17.83  
Snow  
Snow 0.00 in 0.00 in - ()
Month to date snowfall 0.0 0.2  
Since 1 July snowfall 2.1 1.6  
Snow Depth 0.00 in    
Sea Level Pressure  
Sea Level Pressure 30.19 in    
Wind  
Wind Speed 7 mph (East)    
Max Wind Speed 15 mph    
Max Gust Speed 22 mph    
Visibility 10 miles    
Events      
T = Trace of Precipitation, MM = Missing Value Source: NWS Daily Summary

Daily Weather History Graph

Daily Weather History Graph

Search for Another Location

Airport or City:

Trip Planner

Search our weather history database for the weather conditions in past years. The results will help you decide how hot, cold, wet, or windy it might be!

Date:

Astronomy

Apr. 22, 2013 Rise Set
Actual Time 6:07 AM CDT 7:23 PM CDT
Civil Twilight 5:42 AM CDT 7:49 PM CDT
Nautical Twilight 5:11 AM CDT 8:20 PM CDT
Astronomical Twilight 4:38 AM CDT 8:52 PM CDT
Moon 4:20 PM CDT (4/22) 3:52 AM CDT (4/22)
Length of Visible Light 14h 07m
Length of Day
13h 15m
Waxing Gibbous, 88% of the Moon is Illuminated
Apr 22
Waxing Gibbous
Apr 25
Full
May 2
Last Quarter
May 9
New
May 17
First Quarter

Hourly Weather History & Observations

Time (CDT) Temp. Dew Point Humidity Pressure Visibility Wind Dir Wind Speed Gust Speed Precip Events Conditions
12:53 AM 59.0 °F 39.9 °F 49% 30.23 in 10.0 mi East 4.6 mph - N/A   Clear
1:53 AM 57.9 °F 39.0 °F 49% 30.22 in 10.0 mi East 5.8 mph - N/A   Clear
2:53 AM 55.9 °F 39.0 °F 53% 30.22 in 10.0 mi East 5.8 mph - N/A   Clear
3:53 AM 55.0 °F 39.9 °F 57% 30.22 in 10.0 mi ENE 6.9 mph - N/A   Clear
4:53 AM 54.0 °F 39.9 °F 59% 30.22 in 10.0 mi ENE 6.9 mph - N/A   Clear
5:53 AM 53.1 °F 39.9 °F 61% 30.23 in 10.0 mi ENE 6.9 mph 16.1 mph N/A   Clear
6:53 AM 54.0 °F 41.0 °F 62% 30.25 in 10.0 mi ENE 6.9 mph 18.4 mph N/A   Clear
7:53 AM 55.0 °F 42.1 °F 62% 30.26 in 10.0 mi East 9.2 mph 18.4 mph N/A   Clear
8:53 AM 57.9 °F 44.1 °F 60% 30.27 in 10.0 mi East 9.2 mph - N/A   Clear
9:53 AM 62.1 °F 45.0 °F 53% 30.27 in 10.0 mi Variable 5.8 mph 18.4 mph N/A   Clear
10:53 AM 64.9 °F 46.9 °F 52% 30.26 in 10.0 mi ESE 11.5 mph 17.3 mph N/A   Partly Cloudy
11:53 AM 68.0 °F 48.0 °F 49% 30.24 in 10.0 mi ENE 10.4 mph - N/A   Partly Cloudy
12:53 PM 70.0 °F 48.0 °F 46% 30.21 in 10.0 mi East 8.1 mph - N/A   Partly Cloudy
1:53 PM 71.1 °F 48.0 °F 44% 30.18 in 10.0 mi SE 6.9 mph - N/A   Partly Cloudy
2:53 PM 72.0 °F 48.0 °F 43% 30.15 in 10.0 mi ESE 6.9 mph - N/A   Partly Cloudy
3:53 PM 73.0 °F 46.9 °F 39% 30.13 in 10.0 mi East 9.2 mph - N/A   Scattered Clouds
4:53 PM 72.0 °F 48.0 °F 43% 30.12 in 10.0 mi SE 8.1 mph - N/A   Scattered Clouds
5:53 PM 72.0 °F 48.0 °F 43% 30.12 in 10.0 mi SE 6.9 mph - N/A   Scattered Clouds
6:53 PM 70.0 °F 48.9 °F 47% 30.12 in 10.0 mi SE 4.6 mph - N/A   Clear
7:53 PM 66.9 °F 50.0 °F 54% 30.12 in 10.0 mi ESE 3.5 mph - N/A   Clear
8:53 PM 66.0 °F 50.0 °F 56% 30.14 in 10.0 mi ESE 3.5 mph - N/A   Clear
9:53 PM 64.9 °F 50.0 °F 58% 30.14 in 10.0 mi SE 5.8 mph - N/A   Clear
10:53 PM 64.0 °F 50.0 °F 60% 30.14 in 10.0 mi SE 5.8 mph - N/A   Clear
11:53 PM 63.0 °F 48.9 °F 60% 30.14 in 10.0 mi ESE 6.9 mph - N/A   Clear